Weather History for KMTV - January, 2012

Change the Weather History Date:

Friday, January 27, 2012

  Actual Average (KGSO) Record (KGSO)
Temperature  
Mean Temperature 55 °F 39 °F  
Max Temperature 66 °F 49 °F 72 °F (1974)
Min Temperature 44 °F 30 °F -7 °F (1940)
Degree Days  
Heating Degree Days 10 26  
Month to date heating degree days 702  
Since 1 July heating degree days 2116  
Cooling Degree Days 0 0  
Month to date cooling degree days 0  
Year to date cooling degree days 0  
Growing Degree Days 5 (Base 50)    
Moisture  
Dew Point 49 °F    
Average Humidity 68    
Maximum Humidity 100    
Minimum Humidity 45    
Precipitation  
Precipitation 0.03 in 0.09 in 1.52 in (1998)
Month to date precipitation 2.67  
Year to date precipitation 2.67  
Snow  
Snow 0.00 in 0.10 in 3.00 in (1921)
Month to date snowfall 3.0  
Since 1 July snowfall 3.9  
Snow Depth -    
Sea Level Pressure  
Sea Level Pressure 29.75 in    
Wind  
Wind Speed 8 mph (West)    
Max Wind Speed 17 mph    
Max Gust Speed 29 mph    
Visibility 10 miles    
Events Rain    
T = Trace of Precipitation, MM = Missing Value Source: NWS Daily Summary

Daily Weather History Graph

Daily Weather History Graph

Search for Another Location

Airport or City:

Trip Planner

Search our weather history database for the weather conditions in past years. The results will help you decide how hot, cold, wet, or windy it might be!

Date:

Astronomy

Jan. 27, 2012 Rise Set
Actual Time 7:25 AM EST 5:39 PM EST
Civil Twilight 6:58 AM EST 6:07 PM EST
Nautical Twilight 6:27 AM EST 6:38 PM EST
Astronomical Twilight 5:56 AM EST 7:09 PM EST
Moon 9:28 AM EST (1/27) 10:19 PM EST (1/27)
Length of Visible Light 11h 09m
Length of Day
10h 14m
Waxing Crescent, 19% of the Moon is Illuminated
Jan 27
Waxing Crescent
Jan 30
First Quarter
Feb 7
Full
Feb 14
Last Quarter
Feb 21
New

Hourly Weather History & Observations

Time (EST) Temp. Windchill Dew Point Humidity Pressure Visibility Wind Dir Wind Speed Gust Speed Precip Events Conditions
12:15 AM 62.6 °F - 62.6 °F 100% 29.69 in 7.0 mi South 5.8 mph - 0.01 in Rain Light Rain
12:35 AM 62.6 °F - 62.6 °F 100% 29.67 in 10.0 mi South 6.9 mph - 0.01 in   Overcast
12:55 AM 64.4 °F - 64.4 °F 100% 29.66 in 10.0 mi South 6.9 mph - N/A   Overcast
1:15 AM 64.4 °F - 64.4 °F 100% 29.66 in 10.0 mi South 10.4 mph 20.7 mph N/A   Overcast
1:35 AM 64.4 °F - 64.4 °F 100% 29.65 in 10.0 mi South 8.1 mph 19.6 mph N/A   Overcast
1:55 AM 64.4 °F - 64.4 °F 100% 29.64 in 7.0 mi South 9.2 mph 18.4 mph 0.01 in Rain Rain
2:15 AM 64.4 °F - 64.4 °F 100% 29.63 in 10.0 mi South 9.2 mph 18.4 mph 0.02 in   Light Drizzle
2:35 AM 64.4 °F - 64.4 °F 100% 29.62 in 10.0 mi South 8.1 mph - 0.02 in   Overcast
2:55 AM 64.4 °F - 64.4 °F 100% 29.60 in 10.0 mi South 8.1 mph 18.4 mph N/A   Overcast
3:15 AM 64.4 °F - 62.6 °F 94% 29.59 in 10.0 mi South 10.4 mph 18.4 mph N/A   Overcast
3:35 AM 64.4 °F - 62.6 °F 94% 29.58 in 10.0 mi South 9.2 mph 18.4 mph N/A   Light Drizzle
3:55 AM 66.2 °F - 60.8 °F 83% 29.58 in 10.0 mi SSW 11.5 mph 18.4 mph N/A   Overcast
4:35 AM 66.2 °F - 60.8 °F 83% 29.58 in 10.0 mi SSW 5.8 mph 20.7 mph N/A   Overcast
4:55 AM 66.2 °F - 60.8 °F 83% 29.58 in 10.0 mi SW 4.6 mph - N/A   Overcast
5:15 AM 66.2 °F - 60.8 °F 83% 29.58 in 10.0 mi SSW 9.2 mph 17.3 mph N/A   Mostly Cloudy
5:35 AM 66.2 °F - 59.0 °F 78% 29.58 in 10.0 mi SW 9.2 mph 16.1 mph N/A   Scattered Clouds
5:55 AM 66.2 °F - 57.2 °F 73% 29.58 in 10.0 mi SW 11.5 mph 18.4 mph N/A   Clear
6:15 AM 64.4 °F - 57.2 °F 77% 29.58 in 10.0 mi SW 9.2 mph 18.4 mph N/A   Clear
6:35 AM 66.2 °F - 55.4 °F 68% 29.59 in 10.0 mi SW 6.9 mph 24.2 mph N/A   Mostly Cloudy
6:55 AM 64.4 °F - 55.4 °F 73% 29.60 in 10.0 mi WSW 11.5 mph 18.4 mph N/A   Overcast
7:35 AM 62.6 °F - 55.4 °F 77% 29.62 in 10.0 mi West 4.6 mph - N/A   Mostly Cloudy
7:55 AM 62.6 °F - 51.8 °F 68% 29.63 in 10.0 mi West 3.5 mph - N/A   Overcast
8:15 AM 62.6 °F - 50.0 °F 63% 29.63 in 10.0 mi West 3.5 mph - N/A   Overcast
8:35 AM 62.6 °F - 50.0 °F 63% 29.63 in 10.0 mi West 8.1 mph - N/A   Mostly Cloudy
8:55 AM 62.6 °F - 48.2 °F 59% 29.64 in 10.0 mi WSW 8.1 mph - N/A   Mostly Cloudy
9:15 AM 60.8 °F - 48.2 °F 63% 29.65 in 10.0 mi WNW 5.8 mph - N/A   Overcast
9:35 AM 60.8 °F - 51.8 °F 72% 29.66 in 10.0 mi Calm Calm - N/A Rain Light Rain
9:55 AM 62.6 °F - 51.8 °F 68% 29.66 in 10.0 mi WSW 4.6 mph - N/A   Scattered Clouds
10:15 AM 62.6 °F - 51.8 °F 68% 29.67 in 10.0 mi West 6.9 mph - N/A   Clear
10:35 AM 64.4 °F - 48.2 °F 56% 29.69 in 10.0 mi West 9.2 mph 18.4 mph N/A   Clear
10:55 AM 64.4 °F - 46.4 °F 52% 29.70 in 10.0 mi WNW 11.5 mph 24.2 mph N/A   Scattered Clouds
11:15 AM 64.4 °F - 48.2 °F 56% 29.70 in 10.0 mi West 6.9 mph - N/A   Scattered Clouds
11:35 AM 64.4 °F - 46.4 °F 52% 29.70 in 10.0 mi WNW 5.8 mph - N/A   Clear
11:55 AM 64.4 °F - 48.2 °F 56% 29.71 in 10.0 mi NNW 15.0 mph 23.0 mph N/A   Scattered Clouds
12:15 PM 64.4 °F - 46.4 °F 52% 29.71 in 10.0 mi NNW 16.1 mph 21.9 mph N/A   Scattered Clouds
12:35 PM 64.4 °F - 46.4 °F 52% 29.71 in 10.0 mi WNW 16.1 mph 28.8 mph N/A   Mostly Cloudy
12:55 PM 64.4 °F - 44.6 °F 49% 29.73 in 10.0 mi NW 17.3 mph 21.9 mph N/A   Scattered Clouds
1:15 PM 62.6 °F - 44.6 °F 52% 29.73 in 10.0 mi WNW 17.3 mph 23.0 mph N/A   Mostly Cloudy
1:35 PM 64.4 °F - 42.8 °F 45% 29.74 in 10.0 mi WNW 12.7 mph 19.6 mph N/A   Scattered Clouds
1:55 PM 64.4 °F - 42.8 °F 45% 29.76 in 10.0 mi West 9.2 mph 24.2 mph N/A   Mostly Cloudy
2:15 PM 62.6 °F - 44.6 °F 52% 29.78 in 10.0 mi NW 16.1 mph - N/A   Mostly Cloudy
2:35 PM 60.8 °F - 42.8 °F 52% 29.79 in 10.0 mi NW 13.8 mph 20.7 mph N/A   Mostly Cloudy
2:55 PM 60.8 °F - 42.8 °F 52% 29.79 in 10.0 mi North 12.7 mph 16.1 mph N/A   Clear
3:15 PM 60.8 °F - 42.8 °F 52% 29.80 in 10.0 mi NW 16.1 mph - N/A   Scattered Clouds
3:35 PM 60.8 °F - 42.8 °F 52% 29.81 in 10.0 mi NW 15.0 mph - N/A   Clear
3:55 PM 60.8 °F - 41.0 °F 48% 29.82 in 10.0 mi WNW 5.8 mph - N/A   Clear
4:15 PM 59.0 °F - 39.2 °F 48% 29.83 in 10.0 mi WNW 12.7 mph 18.4 mph N/A   Scattered Clouds
4:35 PM 57.2 °F - 39.2 °F 51% 29.84 in 10.0 mi NW 10.4 mph - N/A   Clear
4:55 PM 57.2 °F - 39.2 °F 51% 29.87 in 10.0 mi NW 8.1 mph - N/A   Clear
5:15 PM 55.4 °F - 37.4 °F 51% 29.89 in 10.0 mi NW 4.6 mph - N/A   Clear
5:35 PM 53.6 °F - 37.4 °F 54% 29.89 in 10.0 mi NW 10.4 mph - N/A   Clear
5:55 PM 51.8 °F - 37.4 °F 58% 29.93 in 10.0 mi WNW 6.9 mph - N/A   Clear
6:15 PM 51.8 °F - 37.4 °F 58% 29.95 in 10.0 mi WNW 5.8 mph - N/A   Clear
6:35 PM 50.0 °F - 37.4 °F 62% 29.97 in 10.0 mi NW 10.4 mph - N/A   Clear
6:55 PM 48.2 °F - 37.4 °F 66% 29.99 in 10.0 mi NW 8.1 mph - N/A   Clear
7:15 PM 48.2 °F - 37.4 °F 66% 29.99 in 10.0 mi NW 4.6 mph - N/A   Clear
7:35 PM 44.6 °F 40.7 °F 35.6 °F 71% 30.00 in 10.0 mi NW 6.9 mph - N/A   Clear
8:15 PM 46.4 °F 43.5 °F 35.6 °F 66% 30.01 in 10.0 mi NW 5.8 mph - N/A   Clear
8:35 PM 46.4 °F 40.7 °F 35.6 °F 66% 30.01 in 10.0 mi WNW 12.7 mph - N/A   Clear
8:55 PM 46.4 °F 41.5 °F 35.6 °F 66% 30.01 in 10.0 mi NW 10.4 mph - N/A   Clear
9:15 PM 46.4 °F 41.5 °F 35.6 °F 66% 30.01 in 10.0 mi NNW 10.4 mph - N/A   Clear
9:35 PM 46.4 °F 42.4 °F 35.6 °F 66% 30.02 in 10.0 mi NW 8.1 mph - N/A   Clear
9:55 PM 44.6 °F - 33.8 °F 66% 30.03 in 10.0 mi Calm Calm - N/A   Clear
10:15 PM 44.6 °F 41.4 °F 33.8 °F 66% 30.03 in 10.0 mi NW 5.8 mph - N/A   Clear
10:35 PM 42.8 °F - 33.8 °F 70% 30.03 in 10.0 mi Calm Calm - N/A   Clear
10:55 PM 39.2 °F 35.9 °F 33.8 °F 81% 30.05 in 10.0 mi NW 4.6 mph - N/A   Clear
11:15 PM 42.8 °F 41.1 °F 33.8 °F 70% 30.05 in 10.0 mi NNW 3.5 mph - N/A   Clear
11:35 PM 39.2 °F - 33.8 °F 81% 30.04 in 10.0 mi Calm Calm - N/A   Clear
11:55 PM 39.2 °F - 33.8 °F 81% 30.04 in 10.0 mi Calm Calm - N/A   Clear